Погода в Валево

Сербия     44°16′27″N   19°53′47″E
темп.,
°C
ветер,
м/с
пор.,
м/с
влажн.,
%
обл.,
%
осадки,
мм/ч
давл.,
гПа
погр.,
м
14 апреля, ср
ср1423:00+2сз3899100 1.5 1020404
02:00+1зсз4996100 1.8 1020887
05:00+1зсз4988100 0.2 1020662
08:00+2зсз6108178 0.3 10201073
11:00+4зсз7107096 0.1 10211408
14:00+6зсз7106683 0.3 10201492
17:00+5сз7107089 0.3 10201309
20:00+2сз389199 0.4 1022285
15 апреля, чт
чт1523:00+3з3891100 0.1 1022715
02:00+2з389599 0.3 1022561
05:00+3з3881100 0.1 1022642
08:00+4зсз47698 0.1 1023974
11:00+7сз665493 0.1 10221773
14:00+8сз5654100 0.2 10221728
17:00+8сз565472 0.1 10211597
20:00+3зсз33757 0.2 102228
16 апреля, пт
пт1623:00+2юз32770 0.0 102325
02:00+1юз22760 0.0 102314
05:000ююз22756 0.0 102314
08:00+5ссз1161100 0.0 1023226
11:00+8ссв32495 0.0 10231245
14:00+10св42467 0.0 10211516
17:00+10св334869 0.0 10191366
20:00+5в1167100 0.0 102010
17 апреля, сб
сб1723:00+4ююз1166100 0.0 102010
02:00+5юв0063100 0.0 101910
05:00+4в116789 0.0 101810
08:00+5св1266100 0.0 1018281
11:00+7св3464100 0.0 10161173
14:00+5св2395100 2.1 1016700
17:00+3всв2398100 6.3 1015439
20:00+2юз1199100 8.9 1015144
18 апреля, вс
вс1823:00+3зюз2298100 2.1 1014125
02:00+3ю1297100 7.4 1013185
05:00+3ююз1197100 0.0 1014113
08:00+4ююз018997 0.0 1014187
11:00+8всв117789 0.0 1015619
14:00+9ссв1177100 0.0 1015681
17:00+7ссз2288100 0.0 1016346
20:00+6ссз1297100 0.1 101781